Location: Altmatt
(47.1333°N, 8.7000°E)
Time: 02:50:55
(UTC+00:00)

Cosmos 1805 Rocket - Pass Details

Date: 13 July 2020
Orbit: 607 x 629 km, 82.5° (Epoch: 04 August)

Event Time Altitude Azimuth Distance (km) Brightness Sun altitude
Exits shadow 23:02:28 54° 138° (SE) 747 3.6 -20.9°
Maximum altitude 23:03:08 62° 95° (E) 691 3.6 -20.9°
Drops below altitude 10° 23:07:28 10° 16° (NNE) 1,982 7.1 -21.0°
Sets 23:09:43 0° 13° (NNE) 2,895 8.3 -21.1°
